Voltar ao catálogo

STARLINK-37414

AtivoComunicaçõesVLEO
NORAD 69176·PAYLOAD·🇺🇸 United States

Lançado May 21, 2026 de Cape Canaveral Space Force Station

Loading…

Próximas Passagens (próximas 24 horas)

TLE

AtualizadoSource: CelesTrak SupGP

Época: Sep 14, 2026, 23:29 UTC

1 69176C 26111AE  26257.97895833  .00052752  00000+0  15588-2 0  2570
2 69176  53.1565  91.2738 0001342  91.9761 305.8869 15.34359430    16

Acompanhe STARLINK-37414 em tempo real com AllMySat

Download on the App Store